When you browse on this site, cookies collect data to enhance your experience and personalize the content and advertising you see.
Visit our Privacy Policy to learn more. By continuing to use the site, you agree to this use of cookies and data.
  • In Switzerland
  • List of Countries
  • For 7 days
  • Water Temperature
  • Weather Map
  • Weather Widgets
  • user-avatar
    Login

    Hourly Weather Kabul

    Today, 19 September, Thursday

    Time Temperature Precipitation Wind Pressure Humidity
    00:00 +18°C° 0 mm 1 mps 611 mmHg 21%
    01:00 +16°C° 0 mm 1 mps 611 mmHg 20%
    02:00 +16°C° 0 mm 1 mps 611 mmHg 20%
    03:00 +15°C° 0 mm 1 mps 610 mmHg 19%
    04:00 +14°C° 0 mm 1 mps 610 mmHg 18%
    05:00 +15°C° 0 mm 2 mps 611 mmHg 16%
    06:00 +17°C° 0 mm 2 mps 612 mmHg 14%
    07:00 +20°C° 0 mm 1 mps 613 mmHg 12%
    08:00 +22°C° 0 mm 1 mps 614 mmHg 9%
    09:00 +23°C° 0 mm 1 mps 615 mmHg 8%
    10:00 +25°C° 0 mm 1 mps 615 mmHg 7%
    11:00 +27°C° 0 mm 1 mps 615 mmHg 6%
    12:00 +28°C° 0 mm 2 mps 615 mmHg 6%
    13:00 +29°C° 0 mm 2 mps 615 mmHg 5%
    14:00 +30°C° 0 mm 2 mps 615 mmHg 5%
    15:00 +30°C° 0 mm 3 mps 615 mmHg 5%
    16:00 +30°C° 0 mm 3 mps 615 mmHg 6%
    17:00 +30°C° 0 mm 4 mps 614 mmHg 6%
    18:00 +27°C° 0 mm 3 mps 614 mmHg 9%
    19:00 +25°C° 0 mm 3 mps 614 mmHg 12%
    20:00 +21°C° 0 mm 2 mps 613 mmHg 15%
    21:00 +20°C° 0 mm 2 mps 613 mmHg 17%
    22:00 +19°C° 0 mm 2 mps 612 mmHg 19%
    23:00 +19°C° 0 mm 1 mps 612 mmHg 20%

    Tomorrow, 20 September, Friday

    Time Temperature Precipitation Wind Pressure Humidity
    00:00 +18°C° 0 mm 1 mps 612 mmHg 22%
    01:00 +16°C° 0 mm 1 mps 611 mmHg 23%
    02:00 +16°C° 0 mm 1 mps 611 mmHg 24%
    03:00 +15°C° 0 mm 1 mps 610 mmHg 25%
    04:00 +14°C° 0 mm 1 mps 610 mmHg 26%
    05:00 +14°C° 0 mm 1 mps 610 mmHg 27%
    06:00 +16°C° 0 mm 1 mps 611 mmHg 24%
    07:00 +19°C° 0 mm 1 mps 612 mmHg 21%
    08:00 +20°C° 0 mm 1 mps 613 mmHg 18%
    09:00 +22°C° 0 mm 1 mps 613 mmHg 16%
    10:00 +24°C° 0 mm 1 mps 614 mmHg 14%
    11:00 +26°C° 0 mm 1 mps 614 mmHg 12%
    12:00 +27°C° 0 mm 1 mps 614 mmHg 11%
    13:00 +28°C° 0 mm 1 mps 614 mmHg 9%
    14:00 +29°C° 0 mm 1 mps 613 mmHg 8%
    15:00 +29°C° 0 mm 2 mps 613 mmHg 8%
    16:00 +29°C° 0 mm 2 mps 613 mmHg 8%
    17:00 +29°C° 0 mm 2 mps 613 mmHg 8%
    18:00 +27°C° 0 mm 2 mps 613 mmHg 10%
    19:00 +24°C° 0 mm 2 mps 612 mmHg 13%
    20:00 +21°C° 0 mm 2 mps 612 mmHg 15%
    21:00 +20°C° 0 mm 2 mps 611 mmHg 17%
    22:00 +19°C° 0 mm 2 mps 611 mmHg 18%
    23:00 +19°C° 0 mm 1 mps 611 mmHg 20%

    Day after tomorrow, 21 September, Saturday

    Time Temperature Precipitation Wind Pressure Humidity
    00:00 +18°C° 0 mm 1 mps 611 mmHg 22%
    01:00 +16°C° 0 mm 1 mps 610 mmHg 23%
    02:00 +15°C° 0 mm 1 mps 609 mmHg 25%
    03:00 +15°C° 0 mm 1 mps 609 mmHg 26%
    04:00 +14°C° 0 mm 1 mps 609 mmHg 27%
    05:00 +13°C° 0 mm 0 mps 609 mmHg 28%
    06:00 +15°C° 0 mm 0 mps 610 mmHg 25%
    07:00 +17°C° 0 mm 0 mps 611 mmHg 21%
    08:00 +19°C° 0 mm 0 mps 612 mmHg 18%
    09:00 +21°C° 0 mm 0 mps 612 mmHg 16%
    10:00 +24°C° 0 mm 1 mps 613 mmHg 14%
    11:00 +26°C° 0 mm 1 mps 613 mmHg 13%
    12:00 +27°C° 0 mm 1 mps 613 mmHg 11%
    13:00 +29°C° 0 mm 1 mps 613 mmHg 10%
    14:00 +30°C° 0 mm 2 mps 612 mmHg 9%
    15:00 +30°C° 0 mm 2 mps 612 mmHg 8%
    16:00 +30°C° 0 mm 2 mps 612 mmHg 8%
    17:00 +30°C° 0 mm 2 mps 612 mmHg 8%
    18:00 +27°C° 0 mm 2 mps 611 mmHg 11%
    19:00 +24°C° 0 mm 1 mps 611 mmHg 15%
    20:00 +21°C° 0 mm 1 mps 610 mmHg 18%
    21:00 +21°C° 0 mm 1 mps 610 mmHg 21%
    22:00 +20°C° 0 mm 1 mps 609 mmHg 23%
    23:00 +17°C° 0 mm 0 mps 609 mmHg 25%

    22 September, Sunday

    Time Temperature Precipitation Wind Pressure Humidity
    00:00 +16°C° 0 mm 0 mps 609 mmHg 27%
    01:00 +16°C° 0 mm 0 mps 609 mmHg 29%
    02:00 +15°C° 0 mm 0 mps 608 mmHg 31%
    03:00 +15°C° 0 mm 0 mps 608 mmHg 33%
    04:00 +14°C° 0 mm 0 mps 608 mmHg 35%
    05:00 +14°C° 0 mm 0 mps 608 mmHg 37%
    06:00 +16°C° 0 mm 0 mps 609 mmHg 32%
    07:00 +18°C° 0 mm 0 mps 611 mmHg 27%
    08:00 +21°C° 0 mm 0 mps 612 mmHg 23%
    09:00 +22°C° 0 mm 0 mps 613 mmHg 22%
    10:00 +26°C° 0 mm 1 mps 613 mmHg 21%
    11:00 +27°C° 0 mm 1 mps 613 mmHg 21%
    12:00 +28°C° 0 mm 1 mps 613 mmHg 18%
    13:00 +30°C° 0 mm 1 mps 613 mmHg 16%
    14:00 +31°C° 0 mm 2 mps 613 mmHg 13%
    15:00 +31°C° 0 mm 2 mps 613 mmHg 13%
    16:00 +31°C° 0 mm 2 mps 613 mmHg 13%
    17:00 +31°C° 0 mm 2 mps 613 mmHg 13%
    18:00 +28°C° 0 mm 2 mps 613 mmHg 18%
    19:00 +26°C° 0 mm 2 mps 613 mmHg 23%
    20:00 +23°C° 0 mm 1 mps 612 mmHg 28%
    21:00 +22°C° 0 mm 1 mps 612 mmHg 27%
    22:00 +21°C° 0 mm 1 mps 612 mmHg 27%
    23:00 +20°C° 0 mm 1 mps 612 mmHg 27%

    23 September, Monday

    Time Temperature Precipitation Wind Pressure Humidity
    00:00 +19°C° 0 mm 1 mps 612 mmHg 24%
    01:00 +19°C° 0 mm 1 mps 612 mmHg 22%
    02:00 +18°C° 0 mm 1 mps 611 mmHg 20%
    03:00 +16°C° 0 mm 1 mps 611 mmHg 21%
    04:00 +15°C° 0 mm 1 mps 611 mmHg 21%
    05:00 +13°C° 0 mm 0 mps 610 mmHg 21%
    06:00 +16°C° 0 mm 0 mps 611 mmHg 19%
    07:00 +18°C° 0 mm 0 mps 613 mmHg 16%
    08:00 +20°C° 0 mm 0 mps 614 mmHg 13%
    09:00 +22°C° 0 mm 0 mps 614 mmHg 12%
    10:00 +25°C° 0 mm 1 mps 614 mmHg 11%
    11:00 +27°C° 0 mm 1 mps 615 mmHg 9%
    12:00 +29°C° 0 mm 1 mps 615 mmHg 8%
    13:00 +30°C° 0 mm 1 mps 614 mmHg 8%
    14:00 +31°C° 0 mm 2 mps 614 mmHg 7%
    15:00 +31°C° 0 mm 2 mps 614 mmHg 7%
    16:00 +31°C° 0 mm 2 mps 614 mmHg 7%
    17:00 +31°C° 0 mm 2 mps 614 mmHg 7%
    18:00 +28°C° 0 mm 2 mps 613 mmHg 10%
    19:00 +25°C° 0 mm 1 mps 613 mmHg 13%
    20:00 +22°C° 0 mm 1 mps 612 mmHg 17%
    21:00 +21°C° 0 mm 1 mps 612 mmHg 19%
    22:00 +20°C° 0 mm 1 mps 611 mmHg 22%
    23:00 +19°C° 0 mm 1 mps 611 mmHg 24%

    24 September, Tuesday

    Time Temperature Precipitation Wind Pressure Humidity
    00:00 +17°C° 0 mm 0 mps 611 mmHg 24%
    01:00 +16°C° 0 mm 0 mps 610 mmHg 25%
    02:00 +15°C° 0 mm 0 mps 610 mmHg 25%
    03:00 +15°C° 0 mm 0 mps 610 mmHg 26%
    04:00 +14°C° 0 mm 0 mps 610 mmHg 27%
    05:00 +14°C° 0 mm 0 mps 610 mmHg 28%
    06:00 +16°C° 0 mm 0 mps 611 mmHg 24%
    07:00 +19°C° 0 mm 0 mps 612 mmHg 20%
    08:00 +21°C° 0 mm 0 mps 614 mmHg 16%
    09:00 +23°C° 0 mm 0 mps 614 mmHg 14%
    10:00 +26°C° 0 mm 1 mps 615 mmHg 13%
    11:00 +28°C° 0 mm 1 mps 615 mmHg 11%
    12:00 +29°C° 0 mm 1 mps 615 mmHg 10%
    13:00 +30°C° 0 mm 2 mps 615 mmHg 9%
    14:00 +31°C° 0 mm 2 mps 614 mmHg 9%
    15:00 +31°C° 0 mm 2 mps 614 mmHg 10%
    16:00 +31°C° 0 mm 2 mps 614 mmHg 10%
    17:00 +31°C° 0 mm 3 mps 614 mmHg 11%
    18:00 +28°C° 0 mm 2 mps 614 mmHg 17%
    19:00 +26°C° 0 mm 2 mps 613 mmHg 23%
    20:00 +23°C° 0 mm 2 mps 613 mmHg 29%
    21:00 +22°C° 0 mm 1 mps 613 mmHg 31%
    22:00 +21°C° 0 mm 1 mps 612 mmHg 32%
    23:00 +20°C° 0 mm 1 mps 612 mmHg 33%
    Show more